Back to catalog

COSMOS 1191

AliveMilitaryHEO
NORAD 11871·PAYLOAD·🇷🇺 Russia

Launched Jul 2, 1980 from Plesetsk Cosmodrome

Loading…

Next Passes (next 24 hours)

TLE

FreshSource: Space-Track

Epoch: Sep 13, 2026, 18:05 UTC

1 11871U 80057A   26256.75365541 -.00000200  00000-0  00000+0 0  9997
2 11871  66.0465  64.5777 6619269  17.9585 357.1528  2.00848041245242

Track COSMOS 1191 in real time with AllMySat

Download on the App Store